Port Macquarie Airport Observation History
Time Wind Speed Temp Pressure Rel. Hum Rain
04/08:00am SW 12-18 kts 13.5°c 1029.8 hPa 74% 0.0mm
04/07:30am WSW 11-14 kts 13.3°c 1029.4 hPa 72% 0.0mm
04/07:00am WSW 9-15 kts 13.0°c 1029.0 hPa 74% 0.0mm
04/06:30am WSW 9-13 kts 12.9°c 1028.7 hPa 75% 0.0mm
04/06:00am WSW 11-17 kts 13.2°c 1028.3 hPa 73% 0.0mm
04/05:30am WSW 9-13 kts 13.2°c 1027.9 hPa 70% 0.0mm
04/05:00am WSW 10-15 kts 13.6°c 1027.6 hPa 66% 0.0mm
04/04:30am WSW 9-13 kts 13.6°c 1027.3 hPa 65% 0.0mm
04/04:00am SW 7-11 kts 13.3°c 1027.0 hPa 66% 0.0mm
04/03:30am SW 13-21 kts 13.9°c 1027.2 hPa 65% 0.0mm
04/03:00am WSW 9-12 kts 13.8°c 1027.1 hPa 63% 0.0mm
04/02:30am SW 11-19 kts 14.0°c 1027.0 hPa 63% 0.0mm
04/02:00am WSW 7-10 kts 12.9°c 1026.9 hPa 67% 0.0mm
04/01:30am WSW 8-11 kts 13.7°c 1027.2 hPa 64% 0.0mm
04/01:00am WSW 7-8 kts 13.2°c 1027.0 hPa 66% 0.0mm
04/12:30am WSW 8-10 kts 13.6°c 1027.2 hPa 66% 0.0mm
04/12:00am WSW 9-12 kts 13.9°c 1027.1 hPa 65% 0.0mm
Time Wind Speed Temp Pressure Rel. Hum Rain
03/11:30pm WSW 8-10 kts 13.7°c 1027.2 hPa 65% 0.0mm
03/11:00pm WSW 9-12 kts 13.9°c 1027.4 hPa 63% 0.0mm
03/10:30pm WSW 7-9 kts 13.9°c 1027.4 hPa 61% 0.0mm
03/10:00pm SW 5-7 kts 14.0°c 1027.4 hPa 60% 0.0mm
03/09:30pm WSW 7-9 kts 14.2°c 1027.0 hPa 59% 0.0mm
03/09:00pm W 7-10 kts 14.3°c 1026.8 hPa 58% 0.0mm
03/08:30pm WSW 8-11 kts 14.4°c 1026.7 hPa 59% 0.0mm
03/08:00pm W 7-9 kts 14.3°c 1026.4 hPa 58% 0.0mm
03/07:30pm W 7-10 kts 14.9°c 1026.1 hPa 56% 0.0mm
03/07:00pm W 7-10 kts 14.8°c 1025.7 hPa 56% 0.0mm
03/06:30pm WSW 6-9 kts 14.2°c 1025.2 hPa 57% 0.0mm
03/06:00pm WSW 9-12 kts 15.2°c 1024.4 hPa 54% 0.0mm
03/05:30pm W 7-10 kts 14.5°c 1023.9 hPa 59% 0.0mm
03/05:00pm SW 6-8 kts 14.2°c 1023.6 hPa 59% 0.0mm
03/04:30pm SW 7-9 kts 15.9°c 1023.0 hPa 51% 0.0mm
03/04:00pm SW 7-11 kts 16.8°c 1022.5 hPa 50% 0.0mm
03/03:30pm WSW 10-14 kts 17.5°c 1022.2 hPa 46% 0.0mm
03/03:00pm SW 13-17 kts 18.3°c 1021.7 hPa 42% 0.0mm
03/02:30pm SW 12-17 kts 18.8°c 1021.3 hPa 41% 0.0mm
03/02:00pm SW 12-17 kts 18.7°c 1021.1 hPa 43% 0.0mm
03/01:30pm SW 13-22 kts 18.9°c 1021.0 hPa 43% 0.0mm
03/01:00pm WSW 13-21 kts 19.0°c 1020.9 hPa 44% 0.0mm
03/12:30pm SW 14-20 kts 18.7°c 1020.7 hPa 44% 0.0mm
03/12:00pm SW 16-26 kts 18.6°c 1020.6 hPa 44% 0.0mm
03/11:59am SW 16-26 kts 18.7°c 1020.6 hPa 45% 0.0mm
03/11:30am SW 15-22 kts 18.2°c 1020.9 hPa 45% 0.0mm
03/11:00am SW 9-15 kts 17.7°c 1021.0 hPa 47% 0.0mm
03/10:30am W 6-8 kts 16.5°c 1021.3 hPa 49% 0.0mm
03/10:00am WNW 10-15 kts 15.5°c 1021.1 hPa 50% 0.0mm
03/09:30am W 12-18 kts 14.3°c 1020.9 hPa 52% 0.0mm
03/09:00am W 9-14 kts 13.7°c 1020.7 hPa 54% 0.0mm
03/08:30am W 9-14 kts 12.8°c 1020.5 hPa 54% 0.0mm
03/08:00am W 10-16 kts 11.9°c 1020.5 hPa 56% 0.0mm
03/07:30am W 8-10 kts 11.0°c 1020.2 hPa 58% 0.0mm
03/07:00am W 9-12 kts 10.4°c 1020.0 hPa 59% 0.0mm
03/06:30am W 9-12 kts 10.1°c 1019.6 hPa 60% 0.0mm
03/06:00am W 8-12 kts 10.1°c 1019.2 hPa 60% 0.0mm
03/05:30am W 9-14 kts 10.5°c 1018.9 hPa 58% 0.0mm
03/05:00am W 10-14 kts 10.6°c 1018.7 hPa 58% 0.0mm
03/04:30am W 8-12 kts 10.3°c 1018.4 hPa 60% 0.0mm
03/04:00am WNW 5-8 kts 9.3°c 1018.3 hPa 64% 0.0mm
03/03:30am WNW 6-9 kts 10.6°c 1018.2 hPa 57% 0.0mm
03/03:00am W 9-14 kts 10.8°c 1018.2 hPa 56% 0.0mm
03/02:30am W 10-14 kts 10.9°c 1018.3 hPa 55% 0.0mm
03/02:00am W 10-14 kts 11.3°c 1018.1 hPa 53% 0.0mm
03/01:30am W 11-18 kts 11.4°c 1018.2 hPa 53% 0.0mm
03/01:00am W 10-14 kts 11.0°c 1018.1 hPa 56% 0.0mm
03/12:30am W 8-14 kts 10.9°c 1018.1 hPa 58% 0.0mm
03/12:00am W 7-10 kts 10.9°c 1018.0 hPa 60% 0.0mm
Time Wind Speed Temp Pressure Rel. Hum Rain
02/11:30pm W 8-11 kts 10.7°c 1018.0 hPa 62% 0.0mm
02/11:00pm WNW 9-12 kts 10.7°c 1018.2 hPa 62% 0.0mm
02/10:30pm WNW 7-8 kts 9.3°c 1018.3 hPa 72% 0.0mm
02/10:00pm WSW 2-4 kts 7.0°c 1018.4 hPa 79% 0.0mm
02/09:30pm WSW 1-4 kts 7.7°c 1018.0 hPa 76% 0.0mm
02/09:00pm W 5 kts 10.5°c 1017.6 hPa 61% 0.0mm
02/08:30pm W 5-7 kts 11.7°c 1017.1 hPa 56% 0.0mm
02/08:00pm W 6-9 kts 11.9°c 1016.7 hPa 56% 0.0mm
02/07:30pm W 6-10 kts 11.8°c 1016.3 hPa 56% 0.0mm
02/07:00pm W 8-11 kts 12.0°c 1016.0 hPa 55% 0.0mm
02/06:30pm W 9-12 kts 12.5°c 1015.9 hPa 53% 0.0mm
02/06:00pm W 7-10 kts 12.5°c 1015.6 hPa 54% 0.0mm
02/05:30pm W 6-8 kts 12.9°c 1015.1 hPa 52% 0.0mm
02/05:00pm WNW 8-13 kts 13.8°c 1014.5 hPa 48% 0.0mm
02/04:30pm W 11-18 kts 14.5°c 1014.1 hPa 45% 0.0mm
02/04:00pm W 12-19 kts 15.3°c 1014.0 hPa 43% 0.0mm
02/03:30pm WNW 10-19 kts 15.8°c 1013.5 hPa 42% 0.0mm
02/03:00pm WNW 12-19 kts 16.1°c 1013.0 hPa 41% 0.0mm
02/02:30pm WNW 9-15 kts 16.2°c 1013.2 hPa 41% 0.0mm
02/02:00pm WNW 13-19 kts 16.3°c 1012.9 hPa 42% 0.0mm
02/01:30pm WNW 12-19 kts 15.7°c 1013.1 hPa 43% 0.0mm
02/01:00pm WNW 11-15 kts 15.7°c 1013.7 hPa 43% 0.0mm
02/12:30pm W 12-19 kts 15.3°c 1013.8 hPa 43% 0.0mm
02/12:00pm W 12-21 kts 15.0°c 1014.3 hPa 43% 0.0mm
02/11:30am W 15-22 kts 14.5°c 1015.0 hPa 45% 0.0mm
02/11:19am W 15-25 kts 15.0°c 1014.9 hPa 42% 0.0mm
02/11:00am W 14-21 kts 14.5°c 1015.1 hPa 43% 0.0mm
02/10:30am WNW 12-19 kts 14.1°c 1015.2 hPa 44% 0.0mm
02/10:00am WSW 13-22 kts 13.9°c 1015.7 hPa 46% 0.0mm
02/09:30am W 11-15 kts 13.2°c 1015.9 hPa 46% 0.0mm
02/09:00am WNW 10-15 kts 12.5°c 1015.8 hPa 48% 0.0mm
02/08:30am NW 5-8 kts 11.5°c 1015.8 hPa 57% 0.0mm
02/08:00am CALM 0 kts 11.3°c 1015.9 hPa 56% 0.0mm
02/07:30am WNW 4-5 kts 9.3°c 1015.4 hPa 63% 0.0mm
02/07:00am W 6-8 kts 9.2°c 1015.2 hPa 59% 0.0mm
02/06:30am W 6-7 kts 7.1°c 1015.1 hPa 74% 0.0mm
02/06:00am WSW 4-5 kts 5.1°c 1015.1 hPa 78% 0.0mm
02/05:30am WNW 5-6 kts 7.1°c 1014.7 hPa 72% 0.0mm
02/05:00am W 5-6 kts 8.9°c 1014.1 hPa 61% 0.0mm
02/04:30am WSW 7-8 kts 9.8°c 1013.9 hPa 60% 0.0mm
02/04:00am SW 6-8 kts 9.8°c 1013.8 hPa 62% 0.0mm
02/03:30am SW 8-11 kts 11.1°c 1013.9 hPa 57% 0.0mm
02/03:00am SW 7-9 kts 11.1°c 1013.7 hPa 58% 0.0mm
02/02:30am WSW 6-9 kts 12.6°c 1013.6 hPa 50% 0.0mm
02/02:00am WSW 9-13 kts 14.3°c 1013.5 hPa 42% 0.0mm
02/01:30am SW 7-9 kts 13.4°c 1013.3 hPa 50% 0.0mm
02/01:00am WSW 10-15 kts 14.4°c 1013.3 hPa 48% 0.0mm
02/12:30am W 13-19 kts 15.1°c 1013.1 hPa 48% 0.0mm
02/12:00am WSW 12-17 kts 15.3°c 1012.8 hPa 53% 0.0mm